This demonstration page uses our WeatherBlox Daily Observations layout. Learn more.

Left ArrowRight Arrow

Hourly Observations for June 28, 2022

Temp ( °F °C ) Dew Point ( °F °C ) Humidity (%) Winds ( mph kmh ) Pressure ( in mb ) Visibility ( mi km ) Precip ( " mm )
12:15 am 00:15 Clear 68 20 57 14 69 69 NNW 7 11 30.11 1020 10 16 0.00 0.00
12:35 am 00:35 Clear 66 19 57 14 73 73 NNW 8 13 30.11 1020 10 16 0.00 0.00
12:55 am 00:55 Clear 64 18 55 13 73 73 NNW 8 13 30.12 1020 10 16 0.00 0.00
1:15 am 01:15 Clear 66 19 54 12 64 64 NNW 7 11 30.12 1020 10 16 0.00 0.00
1:35 am 01:35 Clear 66 19 54 12 64 64 N 7 11 30.12 1020 10 16 0.00 0.00
1:55 am 01:55 Clear 64 18 52 11 64 64 N 6 9 30.13 1020 10 16 0.00 0.00
2:15 am 02:15 Clear 63 17 54 12 73 73 NNW 3 6 30.14 1021 10 16 0.00 0.00
2:55 am 02:55 Clear 63 17 52 11 68 68 N 5 7 30.14 1021 10 16 0.00 0.00
3:35 am 03:35 Clear 63 17 52 11 68 68 N 3 6 30.15 1021 10 16 0.00 0.00
3:55 am 03:55 Clear 61 16 52 11 72 72 NNW 3 6 30.15 1021 N/A 0.00 0.00
4:15 am 04:15 Clear 61 16 52 11 72 72 NNW 5 7 30.15 1021 N/A 0.00 0.00
4:35 am 04:35 Clear 61 16 52 11 72 72 NNW 3 6 30.15 1021 N/A 0.00 0.00
4:55 am 04:55 Clear 63 17 50 10 64 64 Calm 30.16 1021 N/A 0.00 0.00
5:15 am 05:15 Clear 59 15 52 11 77 77 WNW 3 6 30.17 1022 N/A 0.00 0.00
5:35 am 05:35 Clear 59 15 52 11 77 77 NW 3 6 30.18 1022 N/A 0.00 0.00
5:55 am 05:55 Sunny 57 14 52 11 82 82 Calm 30.18 1022 N/A 0.00 0.00
6:15 am 06:15 Sunny 55 13 54 12 94 94 Calm 30.19 1022 10 16 0.00 0.00
6:35 am 06:35 undefined 57 14 54 12 88 88 Calm 30.19 1022 N/A 0.00 0.00
6:55 am 06:55 Sunny 59 15 54 12 82 82 NW 3 6 30.20 1023 N/A 0.00 0.00
7:15 am 07:15 Sunny 63 17 54 12 73 73 Calm 30.21 1023 N/A 0.00 0.00
7:35 am 07:35 Sunny 63 17 55 13 77 77 Calm 30.21 1023 10 16 0.00 0.00
7:55 am 07:55 Sunny 64 18 54 12 68 68 NNW 3 6 30.21 1023 10 16 0.00 0.00
8:15 am 08:15 Sunny 68 20 54 12 60 60 NNW 6 9 30.22 1023 10 16 0.00 0.00
8:35 am 08:35 Sunny 68 20 55 13 64 64 NW 6 9 30.22 1023 10 16 0.00 0.00
8:55 am 08:55 Sunny 70 21 55 13 60 60 NW 7 11 30.22 1023 10 16 0.00 0.00
9:15 am 09:15 Sunny 70 21 54 12 57 57 N 7 11 30.23 1024 10 16 0.00 0.00
9:35 am 09:35 Sunny 72 22 54 12 53 53 N 7 11 30.23 1024 10 16 0.00 0.00
9:55 am 09:55 Sunny 72 22 54 12 53 53 NNE 7 11 30.23 1024 10 16 0.00 0.00
10:15 am 10:15 Sunny 72 22 52 11 50 50 NNW 7 11 30.23 1024 10 16 0.00 0.00
10:35 am 10:35 Sunny 72 22 55 13 57 57 NNW 9 15 30.23 1024 10 16 0.00 0.00
10:55 am 10:55 Sunny 73 23 52 11 47 47 N 6 9 30.23 1024 10 16 0.00 0.00
11:15 am 11:15 Partly Cloudy 73 23 54 12 50 50 N 6 9 30.24 1024 10 16 0.00 0.00
11:35 am 11:35 Sunny 73 23 55 13 53 53 NW 9 15 30.23 1024 10 16 0.00 0.00
11:55 am 11:55 Sunny 73 23 52 11 47 47 NE 8 13 30.24 1024 10 16 0.00 0.00
12:15 pm 12:15 Partly Cloudy 73 23 54 12 50 50 N 10 17 30.24 1024 10 16 0.00 0.00
12:35 pm 12:35 Partly Cloudy 73 23 54 12 50 50 N 6 9 30.24 1024 10 16 0.00 0.00
12:55 pm 12:55 Sunny 75 24 54 12 47 47 N 8 13 30.24 1024 10 16 0.00 0.00
1:15 pm 13:15 Sunny 77 25 55 13 47 47 NNW 7 11 30.22 1024 10 16 0.00 0.00
1:35 pm 13:35 Partly Cloudy 77 25 55 13 47 47 W 8 13 30.22 1024 10 16 0.00 0.00
1:55 pm 13:55 Partly Cloudy 77 25 57 14 51 51 WNW 6 9 30.21 1023 10 16 0.00 0.00
2:15 pm 14:15 Sunny 77 25 55 13 47 47 NW 7 11 30.21 1023 10 16 0.00 0.00
2:35 pm 14:35 Sunny 77 25 55 13 47 47 NNW 5 7 30.21 1023 10 16 0.00 0.00
2:55 pm 14:55 Sunny 77 25 55 13 47 47 Calm 30.20 1023 10 16 0.00 0.00
3:15 pm 15:15 Sunny 77 25 57 14 51 51 W 5 7 30.20 1023 10 16 0.00 0.00
3:35 pm 15:35 Partly Cloudy 79 26 55 13 45 45 SW 3 6 30.20 1023 10 16 0.00 0.00
3:55 pm 15:55 Sunny 77 25 55 13 47 47 Calm 30.20 1023 10 16 0.00 0.00
4:15 pm 16:15 Sunny 79 26 55 13 45 45 W 8 13 30.19 1022 10 16 0.00 0.00
4:35 pm 16:35 Sunny 79 26 55 13 45 45 W 6 9 30.19 1022 10 16 0.00 0.00
4:55 pm 16:55 Sunny 79 26 59 15 51 51 WNW 5 7 30.18 1022 10 16 0.00 0.00
5:15 pm 17:15 Sunny 79 26 59 15 51 51 WSW 7 11 30.18 1022 10 16 0.00 0.00
5:35 pm 17:35 Sunny 77 25 55 13 47 47 NNW 6 9 30.18 1022 10 16 0.00 0.00
5:55 pm 17:55 Sunny 77 25 54 12 44 44 NNE 6 9 30.18 1022 10 16 0.00 0.00
6:15 pm 18:15 Sunny 77 25 54 12 44 44 N 5 7 30.18 1022 10 16 0.00 0.00
6:35 pm 18:35 Sunny 77 25 57 14 51 51 NW 3 6 30.18 1022 10 16 0.00 0.00
6:55 pm 18:55 Sunny 77 25 55 13 47 47 Calm 30.18 1022 10 16 0.00 0.00
7:15 pm 19:15 Sunny 77 25 54 12 44 44 Calm 30.18 1022 10 16 0.00 0.00
7:35 pm 19:35 Sunny 75 24 54 12 47 47 Calm 30.19 1022 10 16 0.00 0.00
7:55 pm 19:55 Sunny 77 25 54 12 44 44 Calm 30.19 1022 10 16 0.00 0.00
8:15 pm 20:15 Sunny 75 24 55 13 50 50 Calm 30.20 1023 10 16 0.00 0.00
8:35 pm 20:35 Sunny 73 23 59 15 61 61 Calm 30.20 1023 10 16 0.00 0.00
8:55 pm 20:55 Clear 72 22 61 16 69 69 Calm 30.21 1023 10 16 0.00 0.00
9:15 pm 21:15 Clear 72 22 61 16 69 69 Calm 30.20 1023 10 16 0.00 0.00
9:35 pm 21:35 Clear 70 21 61 16 73 73 Calm 30.20 1023 10 16 0.00 0.00
9:55 pm 21:55 Clear 70 21 61 16 73 73 Calm 30.21 1023 10 16 0.00 0.00
10:15 pm 22:15 Clear 68 20 61 16 78 78 Calm 30.22 1023 10 16 0.00 0.00
10:35 pm 22:35 Clear 68 20 61 16 78 78 Calm 30.22 1023 10 16 0.00 0.00
10:55 pm 22:55 Clear 64 18 61 16 88 88 Calm 30.22 1024 10 16 0.00 0.00
11:15 pm 23:15 Clear 64 18 61 16 88 88 Calm 30.23 1024 10 16 0.00 0.00
11:35 pm 23:35 Clear 64 18 61 16 88 88 Calm 30.23 1024 10 16 0.00 0.00
11:55 pm 23:55 Clear 64 18 61 16 88 88 Calm 30.23 1024 10 16 0.00 0.00

Powered by AerisWeather